Le nostre stazioni meteo in Italia

Pubblicità
Il mio iltempo24.it
Tarvisio, Italia (16040): Temperatura & dewpoint: 03.04.2020 19:00:00 - 09.04.2020 19:00:00 (CEST)Tarvisio, Italia (16040): velocità del vento: 03.04.2020 19:00:00 - 09.04.2020 19:00:00 (CEST)Tarvisio, Italia (16040): direzione del vento: 03.04.2020 19:00:00 - 09.04.2020 19:00:00 (CEST)Tarvisio, Italia (16040): visibility: 03.04.2020 19:00:00 - 09.04.2020 19:00:00 (CEST)
Data & Tempo tt [°C] td [°C] ff [km/h] ff [kn] dd vv [km]
09.04.2020 19:00:00 17,0 2,0 4 2 ENE 10
09.04.2020 18:00:00 19,0 1,0 8 4 E 10
09.04.2020 17:00:00 19,4 1,4 5 3 SE 15
09.04.2020 16:00:00 20,0 3,0 9 5 E 10
09.04.2020 15:00:00 19,0 3,0 9 5 ESE 10
09.04.2020 14:00:00 18,4 3,5 13 7 E 15
09.04.2020 13:00:00 17,0 3,0 9 5 E 10
09.04.2020 12:00:00 15,0 4,0 9 5 SSE 10
09.04.2020 11:00:00 12,8 2,9 8 4 SSE 10
09.04.2020 10:00:00 9,0 2,0 4 2 SSE 10
09.04.2020 09:00:00 4,0 1,0 0 0 N 10
09.04.2020 08:00:00 1,2 -0,6 0 0 N 10
09.04.2020 07:00:00 - - - - - -
09.04.2020 06:00:00 - - - - - -
09.04.2020 05:00:00 - - - - - -
09.04.2020 04:00:00 - - - - - -
09.04.2020 03:00:00 - - - - - -
09.04.2020 02:00:00 - - - - - -
09.04.2020 01:00:00 - - - - - -
09.04.2020 00:00:00 - - - - - -
08.04.2020 23:00:00 - - - - - -
08.04.2020 22:00:00 - - - - - -
08.04.2020 21:00:00 - - - - - -
08.04.2020 20:00:00 12,0 -2,6 0 0 N 10
08.04.2020 19:00:00 15,0 -4,0 8 4 ENE 10
08.04.2020 18:00:00 15,0 -3,0 5 3 ENE 10
08.04.2020 17:00:00 16,2 -1,4 9 5 ENE 10
08.04.2020 16:00:00 16,0 -1,0 15 8 E 10
08.04.2020 15:00:00 16,0 -2,0 15 8 E 10
08.04.2020 14:00:00 15,0 -0,7 13 7 E 10
08.04.2020 13:00:00 13,0 -1,0 15 8 E 10
08.04.2020 12:00:00 12,0 -2,0 13 7 E 10
08.04.2020 11:00:00 11,6 0,1 0 0 N 10
08.04.2020 10:00:00 9,0 2,0 8 4 SSE 10
08.04.2020 09:00:00 2,0 0,0 0 0 N 10
08.04.2020 08:00:00 0,0 -1,7 0 0 N 10
08.04.2020 07:00:00 - - - - - -
08.04.2020 06:00:00 - - - - - -
08.04.2020 05:00:00 - - - - - -
08.04.2020 04:00:00 - - - - - -
08.04.2020 03:00:00 - - - - - -
08.04.2020 02:00:00 - - - - - -
08.04.2020 01:00:00 - - - - - -
08.04.2020 00:00:00 - - - - - -
07.04.2020 23:00:00 - - - - - -
07.04.2020 22:00:00 - - - - - -
07.04.2020 21:00:00 - - - - - -
07.04.2020 20:00:00 11,4 -1,0 2 1 N 10
07.04.2020 19:00:00 15,0 -1,0 5 3 E 10
07.04.2020 18:00:00 15,0 -3,0 9 5 E 10
07.04.2020 17:00:00 16,0 -4,5 11 6 ENE 10
07.04.2020 16:00:00 16,0 -5,0 13 7 ENE 10
07.04.2020 15:00:00 15,0 -5,0 11 6 ENE 10
07.04.2020 14:00:00 15,0 -0,7 13 7 E 10
07.04.2020 13:00:00 14,0 1,0 16 9 E 10
07.04.2020 12:00:00 13,0 1,0 13 7 ESE 10
07.04.2020 11:00:00 10,4 0,4 15 8 E 10
07.04.2020 10:00:00 7,0 2,0 8 4 SE 10
07.04.2020 09:00:00 3,0 1,0 0 0 N 10
07.04.2020 08:00:00 0,4 -0,5 0 0 N 10
07.04.2020 07:00:00 - - - - - -
07.04.2020 06:00:00 - - - - - -
07.04.2020 05:00:00 - - - - - -
07.04.2020 04:00:00 - - - - - -
07.04.2020 03:00:00 - - - - - -
07.04.2020 02:00:00 - - - - - -
07.04.2020 01:00:00 - - - - - -
07.04.2020 00:00:00 - - - - - -
06.04.2020 23:00:00 - - - - - -
06.04.2020 22:00:00 - - - - - -
06.04.2020 21:00:00 - - - - - -
06.04.2020 20:00:00 11,0 2,3 0 0 N 15
06.04.2020 19:00:00 14,0 3,0 8 4 ENE 10
06.04.2020 18:00:00 15,0 5,0 9 5 NE 10
06.04.2020 17:00:00 15,2 2,4 13 7 E 15
06.04.2020 16:00:00 15,0 2,0 13 7 E 10
06.04.2020 15:00:00 15,0 2,0 11 6 E 10
06.04.2020 14:00:00 14,2 2,4 11 6 E 15
06.04.2020 13:00:00 13,0 2,0 15 8 E 10
06.04.2020 12:00:00 12,0 2,0 11 6 E 10
06.04.2020 11:00:00 10,0 2,4 5 3 SE 15
06.04.2020 10:00:00 7,0 2,0 5 3 SSE 10
06.04.2020 09:00:00 3,0 1,0 0 0 N 10
06.04.2020 08:00:00 0,2 -0,4 0 0 N 15
06.04.2020 07:00:00 - - - - - -
06.04.2020 06:00:00 - - - - - -
06.04.2020 05:00:00 - - - - - -
06.04.2020 04:00:00 - - - - - -
06.04.2020 03:00:00 - - - - - -
06.04.2020 02:00:00 - - - - - -
06.04.2020 01:00:00 - - - - - -
06.04.2020 00:00:00 - - - - - -
05.04.2020 23:00:00 - - - - - -
05.04.2020 22:00:00 - - - - - -
05.04.2020 21:00:00 - - - - - -
05.04.2020 20:00:00 10,6 1,7 0 0 N 15
05.04.2020 19:00:00 12,0 -1,0 5 3 NNE 10
05.04.2020 18:00:00 12,0 -1,0 9 5 ENE 10
05.04.2020 17:00:00 12,8 -1,5 13 7 E 15
05.04.2020 16:00:00 13,0 -2,0 11 6 E 10
05.04.2020 15:00:00 12,0 -2,0 11 6 E 10
05.04.2020 14:00:00 11,2 -1,5 13 7 E 15
05.04.2020 13:00:00 11,0 -1,0 15 8 E 10
05.04.2020 12:00:00 15,0 4,0 13 7 E 10
05.04.2020 11:00:00 8,2 0,7 9 5 E 15
05.04.2020 10:00:00 7,0 1,0 9 5 SE 10
05.04.2020 09:00:00 2,0 0,0 0 0 N 10
05.04.2020 08:00:00 -0,8 -1,2 0 0 N 15
05.04.2020 07:00:00 - - - - - -
05.04.2020 06:00:00 - - - - - -
05.04.2020 05:00:00 - - - - - -
05.04.2020 04:00:00 - - - - - -
05.04.2020 03:00:00 - - - - - -
05.04.2020 02:00:00 - - - - - -
05.04.2020 01:00:00 - - - - - -
05.04.2020 00:00:00 - - - - - -
04.04.2020 23:00:00 - - - - - -
04.04.2020 22:00:00 - - - - - -
04.04.2020 21:00:00 - - - - - -
04.04.2020 20:00:00 8,4 -2,5 4 2 NNE 10
04.04.2020 19:00:00 9,0 -2,0 8 4 ENE 10
04.04.2020 18:00:00 10,0 -2,0 5 3 E 10
04.04.2020 17:00:00 10,2 -3,1 9 5 E 15
04.04.2020 16:00:00 11,0 -2,0 9 5 E 10
04.04.2020 15:00:00 12,0 -2,0 9 5 ENE 10
04.04.2020 14:00:00 11,2 -2,2 11 6 ENE 15
04.04.2020 13:00:00 11,0 -2,0 11 6 ESE 10
04.04.2020 12:00:00 9,0 -3,0 13 7 E 10
04.04.2020 11:00:00 8,4 -1,1 8 4 E 15
04.04.2020 10:00:00 6,0 -1,0 8 4 SSE 10
04.04.2020 09:00:00 2,0 -1,0 0 0 N 10
04.04.2020 08:00:00 -1,0 -2,6 0 0 N 15
04.04.2020 07:00:00 - - - - - -
04.04.2020 06:00:00 - - - - - -
04.04.2020 05:00:00 - - - - - -
04.04.2020 04:00:00 - - - - - -
04.04.2020 03:00:00 - - - - - -
04.04.2020 02:00:00 - - - - - -
04.04.2020 01:00:00 - - - - - -
04.04.2020 00:00:00 - - - - - -
03.04.2020 23:00:00 - - - - - -
03.04.2020 22:00:00 - - - - - -
03.04.2020 21:00:00 - - - - - -
03.04.2020 20:00:00 7,6 -0,4 0 0 N 15
03.04.2020 19:00:00 10,0 -2,0 0 0 N 10

tt = Temperatura
td = dewpoint
ff = velocità del vento
dd = direzione del vento
vv = visibility

Stazioni seguenti

WeatherPro
AMSI
MeteoEarth